Location: St Paul
(33.9360°N, 83.4200°W)
Time: 16:51:18
(UTC-04:00)

FENGYUN 3A - Pass Details

Date: 06 October 2017
Orbit: 820 x 832 km, 98.4° (Epoch: 17 October)

Event Time Altitude Azimuth Distance (km) Brightness Sun altitude
Rises 19:53:40 0° 156° (SSE) 3,340 6.6 -9.7°
Reaches altitude 10° 19:56:02 10° 152° (SSE) 2,412 5.8 -10.2°
Maximum altitude 20:01:17 60° 74° (ENE) 943 3.7 -11.3°
Drops below altitude 10° 20:06:34 10° 356° (N) 2,434 6.2 -12.4°
Sets 20:08:57 0° 353° (N) 3,372 7.0 -12.9°
